GW3371 Weather Reports


time (UTC)temp
C
wind
direction
speed
KPH
gust
KPH
rain 1hr
cm
rain 24hr
cm
rain mn
cm
humidity
%
barometer
mb
20260510194021 20 360 3.2 16.1 0.00 0.41 0.03 69 1010.7
20260510193519 20 360 3.2 16.1 0.00 0.41 0.03 71 1010.7
20260510193042 21 360 4.8 12.9 0.00 0.41 0.03 70 1010.6
20260510192518 21 360 3.2 12.9 0.00 0.41 0.03 68 1010.7
20260510192018 21 360 3.2 8.0 0.00 0.41 0.03 66 1010.6
20260510191534 21 360 1.6 8.0 0.00 0.41 0.03 66 1010.6
20260510191023 21 360 1.6 14.5 0.00 0.41 0.03 58 1010.6
20260510190521 21 360 4.8 14.5 0.00 0.41 0.03 66 1010.6
20260510190055 22 0 0.0 9.7 0.00 0.41 0.03 69 1010.7
20260510185523 22 360 4.8 9.7 0.00 0.56 0.03 64 1010.7
20260510185022 22 360 0.0 8.0 0.00 0.56 0.03 69 1010.8
20260510184534 21 0 0.0 8.0 0.00 0.56 0.03 69 1010.7
20260510184025 21 0 3.2 8.0 0.00 0.56 0.03 71 1010.8
20260510183525 21 360 0.0 8.0 0.00 0.56 0.03 63 1010.8
20260510183038 21 360 1.6 9.7 0.00 0.56 0.03 70 1010.8
20260510182522 21 360 4.8 9.7 0.00 0.56 0.03 70 1010.8
20260510182022 21 360 1.6 8.0 0.00 0.56 0.03 72 1010.9
20260510181539 20 360 3.2 8.0 0.00 0.56 0.03 73 1010.8
20260510181022 20 360 1.6 6.4 0.00 0.56 0.03 73 1010.8
20260510180523 20 360 1.6 6.4 0.00 0.56 0.03 73 1010.8
20260510180040 20 360 1.6 9.7 0.00 0.56 0.03 64 1011.0
20260510175521 20 360 1.6 9.7 0.00 0.74 0.03 74 1011.0
20260510175022 20 360 1.6 9.7 0.00 0.74 0.03 74 1010.9
20260510174539 20 360 0.0 12.9 0.00 0.74 0.03 77 1011.0
20260510174024 20 360 4.8 12.9 0.00 0.74 0.03 75 1011.1
20260510173526 19 360 1.6 12.9 0.00 0.74 0.03 76 1011.0
20260510173046 18 360 1.6 8.0 0.00 0.74 0.03 69 1011.1
20260510172522 18 360 1.6 12.9 0.00 0.74 0.03 69 1011.2
20260510172021 18 360 3.2 12.9 0.00 0.74 0.03 79 1011.1
20260510171538 18 360 4.8 12.9 0.00 0.74 0.03 80 1011.1
20260510171021 17 360 1.6 12.9 0.00 0.74 0.03 82 1011.3
20260510170529 17 360 3.2 12.9 0.00 0.74 0.03 82 1011.3
20260510170035 17 360 1.6 6.4 0.00 0.74 0.03 83 1011.3
20260510165521 17 360 1.6 8.0 0.00 0.94 0.03 84 1011.3
20260510165021 17 360 3.2 8.0 0.00 0.94 0.03 83 1011.5
20260510164546 17 360 1.6 8.0 0.00 0.94 0.03 82 1011.5
20260510164018 17 360 1.6 8.0 0.00 0.94 0.03 82 1011.6
20260510163518 17 0 1.6 8.0 0.00 0.94 0.03 82 1011.6
20260510163056 17 360 3.2 12.9 0.00 0.94 0.03 81 1011.6
20260510162521 17 360 3.2 12.9 0.00 0.94 0.03 82 1011.5
20260510162018 17 360 4.8 12.9 0.00 0.94 0.03 72 1011.6
20260510161539 17 360 3.2 12.9 0.00 0.94 0.03 82 1011.4
20260510161018 17 360 3.2 16.1 0.00 0.94 0.03 82 1011.7
20260510160518 17 360 1.6 16.1 0.00 0.94 0.03 83 1011.6
20260510160039 17 360 6.4 14.5 0.00 0.94 0.03 82 1011.7
20260510155517 17 360 3.2 12.9 0.00 1.04 0.03 83 1011.7
20260510155021 17 360 3.2 12.9 0.00 1.04 0.03 84 1011.7
20260510154535 16 360 1.6 14.5 0.00 1.04 0.03 75 1011.8
20260510154022 16 360 3.2 19.3 0.00 1.04 0.03 85 1011.9
20260510153521 16 360 6.4 19.3 0.00 1.04 0.03 85 1011.9
20260510153053 16 0 3.2 17.7 0.00 1.04 0.03 86 1012.0
20260510152521 16 360 4.8 17.7 0.00 1.04 0.03 86 1012.1
20260510152022 16 360 3.2 14.5 0.00 1.04 0.03 86 1012.0
20260510151536 15 360 3.2 14.5 0.00 1.04 0.03 87 1011.9
20260510151021 15 360 4.8 14.5 0.00 1.04 0.03 78 1011.9
20260510150523 15 360 1.6 14.5 0.00 1.04 0.03 88 1011.8
20260510150041 14 360 3.2 20.9 0.00 1.04 0.03 88 1011.8
20260510145522 14 360 4.8 20.9 0.00 1.14 0.03 89 1011.9
20260510145022 14 360 4.8 16.1 0.00 1.14 0.03 88 1011.9
20260510144543 14 0 3.2 16.1 0.00 1.14 0.03 92 1011.9
20260510144022 13 360 1.6 16.1 0.00 1.14 0.03 82 1011.9
20260510143522 13 360 3.2 9.7 0.00 1.14 0.03 84 1011.9
20260510143038 13 0 1.6 9.7 0.00 1.14 0.03 93 1012.0
20260510142523 12 0 0.0 6.4 0.00 1.14 0.03 96 1012.0
20260510142021 12 360 3.2 6.4 0.00 1.14 0.03 94 1012.1
20260510141535 12 360 0.0 9.7 0.00 1.14 0.03 96 1012.1
20260510141018 12 360 1.6 9.7 0.00 1.14 0.03 96 1012.1
20260510140517 12 360 1.6 9.7 0.00 1.14 0.03 96 1012.1
20260510140038 12 360 1.6 8.0 0.00 1.14 0.03 96 1012.1
20260510135517 12 360 3.2 8.0 0.00 1.19 0.03 96 1012.0
20260510135017 12 0 1.6 9.7 0.00 1.19 0.03 97 1012.1
20260510134540 12 360 1.6 12.9 0.00 1.19 0.03 97 1012.2
20260510134017 11 360 3.2 12.9 0.00 1.19 0.03 98 1012.1
20260510133517 11 360 1.6 9.7 0.00 1.19 0.03 99 1012.0
20260510133036 11 360 1.6 9.7 0.00 1.19 0.03 99 1012.0
20260510132522 11 360 0.0 4.8 0.00 1.19 0.03 100 1012.1
20260510132019 11 360 1.6 6.4 0.00 1.19 0.03 100 1012.0
20260510131532 11 360 0.0 8.0 0.00 1.19 0.03 100 1012.1
20260510131018 11 360 1.6 8.0 0.00 1.19 0.03 100 1012.1
20260510130518 11 360 3.2 8.0 0.00 1.19 0.03 100 1012.2
20260510130035 11 0 0.0 6.4 0.00 1.19 0.03 100 1012.1
20260510125518 11 0 1.6 4.8 0.00 1.22 0.03 100 1012.2
20260510125017 11 360 0.0 4.8 0.00 1.22 0.03 100 1012.1
20260510124539 11 360 0.0 4.8 0.00 1.22 0.03 100 1012.0
20260510124020 10 0 0.0 3.2 0.00 1.22 0.03 100 1011.9
20260510123517 10 0 0.0 3.2 0.00 1.22 0.03 100 1011.8
20260510123036 10 0 0.0 4.8 0.00 1.22 0.03 100 1011.8
20260510122517 10 0 0.0 4.8 0.00 1.22 0.03 100 1011.9
20260510122020 10 360 1.6 4.8 0.00 1.22 0.03 100 1011.9
20260510121536 10 360 0.0 3.2 0.00 1.22 0.03 100 1012.0
20260510121017 10 0 0.0 3.2 0.00 1.22 0.03 100 1012.0
20260510120518 10 360 0.0 3.2 0.00 1.22 0.03 100 1012.0
20260510120035 10 360 0.0 3.2 0.00 1.22 0.03 100 1012.0
20260510115517 10 0 0.0 6.4 0.00 1.32 0.03 100 1012.0
20260510115018 10 360 0.0 6.4 0.00 1.32 0.03 100 1012.0
20260510114540 10 360 1.6 6.4 0.00 1.32 0.03 100 1012.0
20260510114018 10 0 1.6 6.4 0.00 1.32 0.03 100 1012.1
20260510113517 10 360 1.6 4.8 0.00 1.32 0.03 100 1012.0
20260510113034 10 360 1.6 4.8 0.00 1.32 0.03 100 1012.0
20260510112518 10 360 1.6 6.4 0.00 1.32 0.03 100 1012.0
20260510112018 10 360 0.0 6.4 0.00 1.32 0.03 100 1011.9
20260510111534 10 360 0.0 1.6 0.00 1.32 0.03 100 1011.8
20260510111017 10 0 0.0 3.2 0.00 1.32 0.03 100 1011.9
20260510110517 10 0 0.0 6.4 0.00 1.32 0.03 100 1011.7
20260510110036 10 360 1.6 9.7 0.00 1.32 0.03 100 1011.7
20260510105517 10 360 1.6 9.7 0.00 1.47 0.03 100 1011.6
20260510105018 10 0 0.0 6.4 0.00 1.47 0.03 100 1011.5
20260510104534 10 360 0.0 6.4 0.00 1.47 0.03 100 1011.5
20260510104020 10 360 0.0 4.8 0.00 1.47 0.03 100 1011.3
20260510103517 10 360 0.0 3.2 0.00 1.47 0.03 100 1011.4
20260510103034 9 360 0.0 3.2 0.00 1.47 0.03 100 1011.3
20260510102517 9 360 0.0 3.2 0.00 1.47 0.03 100 1011.4
20260510102016 9 0 0.0 1.6 0.00 1.47 0.03 100 1011.4
20260510101535 9 0 0.0 1.6 0.00 1.47 0.03 100 1011.3
20260510101017 9 0 0.0 1.6 0.00 1.47 0.03 100 1011.1
20260510100520 9 0 0.0 1.6 0.00 1.47 0.03 100 1011.0
20260510100049 9 0 0.0 3.2 0.00 1.47 0.03 100 1011.0
20260510095518 9 360 0.0 4.8 0.00 1.47 0.03 100 1010.9
20260510095020 9 0 0.0 4.8 0.00 1.47 0.03 100 1010.9
20260510094550 9 360 1.6 3.2 0.00 1.47 0.03 100 1010.8
20260510094017 9 0 0.0 4.8 0.00 1.47 0.03 100 1010.5
20260510093517 9 0 0.0 4.8 0.00 1.47 0.03 100 1010.2
20260510093038 9 360 0.0 8.0 0.00 1.47 0.03 100 1010.3
20260510092518 9 0 1.6 8.0 0.00 1.47 0.03 100 1010.3
20260510092019 9 0 1.6 8.0 0.00 1.47 0.03 100 1010.3
20260510091536 9 360 1.6 6.4 0.00 1.47 0.03 100 1010.1
20260510091017 9 360 0.0 3.2 0.00 1.47 0.03 100 1010.3
20260510090517 9 0 0.0 4.8 0.00 1.47 0.03 100 1010.2
20260510090045 9 0 0.0 6.4 0.00 1.47 0.03 100 1010.3
20260510085517 9 360 0.0 6.4 0.00 1.47 0.03 100 1010.6
20260510085023 9 0 0.0 3.2 0.00 1.47 0.03 100 1010.5
20260510084541 9 0 0.0 4.8 0.00 1.47 0.03 100 1010.8
20260510084020 9 0 0.0 4.8 0.00 1.47 0.03 100 1010.8
20260510083518 9 360 0.0 4.8 0.00 1.47 0.03 100 1010.9
20260510083033 9 0 0.0 1.6 0.00 1.47 0.03 100 1011.0
20260510082517 9 0 0.0 1.6 0.00 1.47 0.03 100 1010.9
20260510082017 9 360 0.0 1.6 0.00 1.47 0.03 100 1010.9
20260510081544 9 0 0.0 3.2 0.00 1.47 0.03 100 1010.9
20260510081018 9 0 0.0 3.2 0.00 1.47 0.03 100 1011.0
20260510080518 9 0 0.0 3.2 0.00 1.47 0.03 100 1011.0
20260510080034 9 0 0.0 1.6 0.00 1.47 0.03 100 1011.0
20260510075517 9 0 0.0 1.6 0.00 1.47 0.03 100 1011.1
20260510075018 9 0 0.0 1.6 0.00 1.47 0.03 100 1011.0
20260510074537 9 0 0.0 3.2 0.00 1.47 0.03 100 1010.9
20260510074017 9 0 0.0 3.2 0.00 1.47 0.03 100 1010.9
20260510073517 8 0 0.0 3.2 0.00 1.47 0.03 100 1010.8
20260510073035 8 0 0.0 1.6 0.00 1.47 0.03 100 1010.7
20260510072517 8 0 0.0 1.6 0.00 1.47 0.03 100 1010.7
20260510072017 8 0 0.0 1.6 0.00 1.47 0.03 100 1010.8
20260510071539 8 0 0.0 1.6 0.00 1.47 0.03 100 1010.7
20260510071017 8 0 0.0 1.6 0.00 1.47 0.03 100 1010.6
20260510070519 8 0 0.0 1.6 0.00 1.47 0.03 100 1010.4
20260510070039 8 0 0.0 1.6 0.00 1.47 0.03 100 1010.4
20260510065518 8 0 0.0 1.6 0.00 1.47 0.03 100 1010.4
20260510065019 8 0 0.0 1.6 0.00 1.47 0.03 100 1010.4
20260510064537 8 360 0.0 1.6 0.00 1.47 0.03 100 1010.3
20260510064016 8 0 0.0 3.2 0.00 1.47 0.03 100 1010.3
20260510063516 9 0 0.0 3.2 0.00 1.47 0.03 100 1010.4
20260510063036 9 0 0.0 3.2 0.00 1.47 0.03 100 1010.4
20260510062517 9 0 0.0 1.6 0.00 1.47 0.03 100 1010.3
20260510062021 9 360 0.0 1.6 0.00 1.47 0.03 100 1010.3
20260510061534 9 0 0.0 1.6 0.00 1.47 0.03 100 1010.4
20260510061016 9 0 0.0 3.2 0.00 1.47 0.03 100 1010.5
20260510060517 9 0 0.0 4.8 0.00 1.47 0.03 100 1010.6
20260510060036 9 360 0.0 4.8 0.00 1.47 0.03 100 1010.7
20260510055519 9 360 0.0 3.2 0.00 1.47 0.03 100 1010.8
20260510055021 9 0 0.0 3.2 0.00 1.47 0.03 100 1010.8
20260510054536 9 360 0.0 3.2 0.00 1.47 0.03 100 1010.7
20260510054017 9 0 0.0 3.2 0.00 1.47 0.03 100 1010.8
20260510053521 9 360 0.0 3.2 0.00 1.47 0.03 100 1010.8
20260510053036 9 360 0.0 4.8 0.00 1.47 0.03 100 1010.7
20260510052517 9 360 0.0 4.8 0.00 1.47 0.03 100 1010.7
20260510052017 9 0 0.0 1.6 0.00 1.47 0.03 100 1010.7
20260510051532 9 0 0.0 1.6 0.00 1.47 0.03 100 1010.6
20260510051018 9 0 0.0 1.6 0.00 1.47 0.03 100 1010.7
20260510050517 9 360 0.0 1.6 0.00 1.47 0.03 100 1010.6
20260510050040 9 0 0.0 0.0 0.03 1.47 0.03 100 1010.5
20260510045519 8 0 0.0 1.6 0.05 1.47 0.03 100 1010.5
20260510045018 9 0 0.0 1.6 0.05 1.47 0.03 100 1010.7
20260510044537 8 0 0.0 0.0 0.05 1.47 0.03 100 1010.8
20260510044016 8 0 0.0 1.6 0.05 1.47 0.03 100 1010.8
20260510043516 8 0 0.0 1.6 0.05 1.47 0.03 100 1010.9
20260510043037 8 0 0.0 0.0 0.05 1.47 0.03 100 1010.9
20260510042515 8 0 0.0 1.6 0.05 1.47 0.03 100 1010.9
20260510042016 8 0 0.0 1.6 0.05 1.47 0.03 100 1010.8
20260510041532 8 0 0.0 1.6 0.05 1.47 0.03 100 1010.9
20260510041017 8 0 0.0 1.6 0.05 1.47 0.03 100 1011.0
20260510040517 8 0 0.0 1.6 0.05 1.47 0.03 100 1010.9
20260510040034 8 0 0.0 1.6 0.03 1.47 0.00 100 1011.0
20260510035517 8 0 0.0 1.6 0.00 1.45 1.45 100 1011.0
20260510035018 8 0 0.0 1.6 0.00 1.45 1.45 100 1011.0
20260510034541 8 0 0.0 1.6 0.00 1.45 1.45 100 1011.0
20260510034018 8 360 0.0 1.6 0.00 1.45 1.45 100 1011.0
20260510033518 8 0 0.0 1.6 0.00 1.45 1.45 100 1010.9
20260510033041 8 0 0.0 1.6 0.00 1.45 1.45 100 1010.9
20260510032518 8 0 0.0 1.6 0.00 1.45 1.45 100 1010.9
20260510032019 8 0 0.0 1.6 0.00 1.45 1.45 100 1011.0
20260510031537 8 0 0.0 1.6 0.00 1.45 1.45 100 1010.9
20260510031018 8 0 0.0 1.6 0.00 1.45 1.45 100 1010.8
20260510030517 8 0 0.0 1.6 0.00 1.45 1.45 100 1010.9
20260510030034 8 0 0.0 1.6 0.00 1.45 1.45 100 1011.0
20260510025518 8 0 0.0 1.6 0.00 1.45 1.45 100 1011.0
20260510025017 8 0 0.0 1.6 0.00 1.45 1.45 100 1010.9
20260510024538 8 0 0.0 1.6 0.00 1.45 1.45 100 1010.8
20260510024016 8 360 0.0 1.6 0.00 1.45 1.45 100 1010.9
20260510023517 8 0 0.0 4.8 0.00 1.45 1.45 100 1011.0
20260510023037 8 0 0.0 4.8 0.00 1.45 1.45 100 1010.9
20260510022517 8 360 1.6 4.8 0.00 1.45 1.45 100 1010.8
20260510022017 8 0 0.0 1.6 0.00 1.45 1.45 100 1011.1
20260510021534 8 0 0.0 1.6 0.00 1.45 1.45 100 1011.1
20260510021018 8 0 0.0 1.6 0.00 1.45 1.45 100 1011.2
20260510020523 8 360 0.0 1.6 0.00 1.45 1.45 100 1011.3
20260510020038 8 0 0.0 1.6 0.00 1.45 1.45 100 1011.3
20260510015518 8 0 0.0 1.6 0.00 1.45 1.45 100 1011.3
20260510015021 8 0 0.0 1.6 0.00 1.45 1.45 100 1011.5
20260510014541 8 0 0.0 1.6 0.00 1.45 1.45 100 1011.6
20260510014017 8 0 0.0 0.0 0.00 1.45 1.45 100 1011.5
20260510013516 8 0 0.0 1.6 0.00 1.45 1.45 100 1011.4
20260510013036 8 0 0.0 1.6 0.00 1.45 1.45 100 1011.3
20260510012517 8 360 0.0 1.6 0.00 1.45 1.45 100 1011.3
20260510012021 8 0 0.0 1.6 0.00 1.45 1.45 100 1011.4
20260510011541 8 360 0.0 1.6 0.00 1.45 1.45 100 1011.3
20260510011016 8 0 0.0 1.6 0.00 1.45 1.45 100 1011.2
20260510010516 8 0 0.0 1.6 0.00 1.45 1.45 100 1010.9
20260510010037 8 0 0.0 1.6 0.00 1.45 1.45 100 1010.8
20260510005517 8 0 0.0 3.2 0.00 1.45 1.45 100 1010.8
20260510005016 8 0 0.0 3.2 0.00 1.45 1.45 100 1010.9
20260510004537 8 0 0.0 4.8 0.00 1.45 1.45 100 1010.8
20260510004016 8 0 0.0 4.8 0.00 1.45 1.45 100 1010.8
20260510003520 8 360 1.6 4.8 0.00 1.45 1.45 100 1010.7
20260510003039 8 0 0.0 3.2 0.00 1.45 1.45 100 1010.7
20260510002517 8 360 0.0 3.2 0.00 1.45 1.45 100 1010.6
20260510002017 8 360 0.0 3.2 0.00 1.45 1.45 100 1010.4
20260510001537 8 0 0.0 3.2 0.00 1.45 1.45 100 1010.3
20260510001017 8 0 0.0 1.6 0.00 1.45 1.45 100 1010.2
20260510000517 8 360 0.0 1.6 0.00 1.45 1.45 100 1010.3
20260510000057 8 0 0.0 1.6 0.00 1.45 1.45 100 1010.5
20260509235518 8 0 0.0 1.6 0.00 1.45 1.45 100 1010.7
20260509235023 8 0 0.0 1.6 0.00 1.45 1.45 100 1010.6
20260509234547 8 0 0.0 1.6 0.00 1.45 1.45 100 1010.8
20260509234016 8 0 0.0 1.6 0.00 1.45 1.45 100 1010.7
20260509233519 8 0 0.0 1.6 0.00 1.45 1.45 100 1010.6
20260509233034 8 0 0.0 1.6 0.00 1.45 1.45 100 1010.6
20260509232521 8 0 0.0 1.6 0.00 1.45 1.45 100 1010.7
20260509232017 8 0 0.0 1.6 0.00 1.45 1.45 100 1010.7
20260509231538 8 0 0.0 1.6 0.00 1.45 1.45 100 1010.7
20260509231017 8 0 0.0 1.6 0.00 1.45 1.45 100 1010.6
20260509230517 8 0 0.0 1.6 0.00 1.45 1.45 100 1010.6
20260509230038 8 0 0.0 1.6 0.00 1.45 1.45 100 1010.7
20260509225518 8 0 0.0 3.2 0.00 1.45 1.45 100 1010.7
20260509225018 8 0 0.0 3.2 0.00 1.45 1.45 100 1010.7
20260509224536 8 0 0.0 1.6 0.00 1.45 1.45 100 1010.7
20260509224021 8 0 0.0 3.2 0.00 1.45 1.45 100 1010.6
20260509223522 8 360 0.0 3.2 0.00 1.45 1.45 100 1010.5
20260509223036 8 0 0.0 3.2 0.00 1.45 1.45 100 1010.5
20260509222521 8 0 0.0 3.2 0.00 1.45 1.45 100 1010.4
20260509222022 8 0 0.0 3.2 0.00 1.45 1.45 100 1010.4
20260509221535 8 0 0.0 3.2 0.03 1.45 1.45 100 1010.4
20260509221022 8 360 0.0 3.2 0.03 1.45 1.45 100 1010.3
20260509220521 8 360 0.0 3.2 0.03 1.45 1.45 100 1010.3
20260509220039 8 360 0.0 3.2 0.05 1.45 1.45 100 1010.4
20260509215522 8 0 0.0 3.2 0.05 1.45 1.45 100 1010.6
20260509215024 8 0 0.0 3.2 0.08 1.45 1.45 100 1010.6
20260509214535 8 0 0.0 3.2 0.08 1.45 1.45 100 1010.7
20260509214021 8 0 0.0 3.2 0.08 1.45 1.45 100 1010.7
20260509213521 8 360 0.0 3.2 0.10 1.45 1.45 100 1010.7
20260509213039 8 360 0.0 1.6 0.10 1.45 1.45 100 1010.7
20260509212522 8 0 0.0 1.6 0.10 1.45 1.45 100 1010.8
20260509212022 8 360 0.0 1.6 0.13 1.45 1.45 100 1010.9
20260509211539 8 0 0.0 3.2 0.10 1.42 1.42 100 1010.9
20260509211021 8 0 0.0 3.2 0.13 1.42 1.42 100 1011.0
20260509210521 8 0 0.0 3.2 0.13 1.42 1.42 100 1011.1
20260509210042 8 0 0.0 3.2 0.10 1.40 1.40 100 1011.2
20260509205521 8 0 0.0 3.2 0.13 1.40 1.40 100 1011.2
20260509205022 8 360 0.0 1.6 0.10 1.37 1.37 100 1011.2
20260509204541 8 0 0.0 3.2 0.13 1.37 1.37 100 1011.3
20260509204025 8 0 0.0 3.2 0.13 1.37 1.37 100 1011.4
20260509203521 8 360 0.0 3.2 0.13 1.32 1.32 100 1011.5
20260509203037 8 360 0.0 3.2 0.13 1.32 1.32 100 1011.5
20260509202521 8 360 0.0 3.2 0.15 1.32 1.32 100 1011.5
20260509202024 8 0 0.0 3.2 0.15 1.32 1.32 100 1011.6
20260509201538 8 0 0.0 3.2 0.18 1.32 1.32 100 1011.6
20260509201021 8 360 0.0 3.2 0.18 1.30 1.30 100 1011.6
20260509200525 8 360 0.0 3.2 0.20 1.30 1.30 100 1011.5
20260509200039 8 360 1.6 3.2 0.20 1.30 1.30 100 1011.7
20260509195522 8 0 0.0 3.2 0.20 1.27 1.27 100 1011.5
20260509195021 7 0 0.0 3.2 0.20 1.27 1.27 100 1011.5
20260509194537 7 360 0.0 3.2 0.20 1.24 1.24 100 1011.5